COSMOS 2491 DEB, 57569

Orbit data source: Space-Track

COSMOS 2491 DEB, 57569 is space debris in LEO originally from a launch on Wed, 25 Dec 2013 UTC launched from the Plesetsk Missile And Space Complex (PKMTR). Debris objects in space refer to the collection of defunct objects orbiting the Earth. Examples of debris include non-operational satellites, rocket bodies, and fragments generated from explosions, collisions, or faulty payload assembly.

Loading next visibility...
Identifier
57569, 2013-076BG
Orbit
LEO
Country
Flag of CISCIS
Related business
Manufacturer
TsNIIKhM
Mission
Spacecraft
Bus & Motor
Unknown
Mass
Unknown
Launch date (UTC)
2013-12-25 (12 years ago)
Launch vehicle
Unknown
Launch site
Plesetsk Missile And Space Complex (PKMTR)
Object type
Payload
Rocket body
Debris
Shape & HBR
Unknown shape, 0.1 m
Radar Cross Section
Small (<0.1 m²)

Expand to show TLE details & history
Last TLE update: 3 months ago

TLE from 3 months ago
0 COSMOS 2491 DEB
1 57569U 13076BG  26021.84120847  .00002414  00000-0  14705-1 0  9993
2 57569  82.4681 241.0157 0101969 253.6780 105.3073 12.54100236124134
Epoch: 2026-01-21T20:11Z
TLE epoch observation values (Epoch: 2026-01-21T20:11:20.411Z)
Latitude
-0.00005°
Longitude
176.97771°
Altitude
1,471.93 km
Speed
7.117 km/s
True Right ascension
16h 04m 03s
True Declination
0° 00' 00"
Sunlit
Object was in daylight at epoch
Visualization orbit readout
Latitude
Unknown
Longitude
Unknown
Altitude
Unknown
Speed
Unknown
Apparent Right ascension
Unknown
Apparent Declination
Unknown
Sunlit
N/A
Visualization observer readout
Local Sidereal Time
19:09:31
Azimuth
Unknown
Elevation
Unknown
Doppler factor
Unknown
Orbital elements
Apogee altitude
1,524.497 km
Perigee altitude
1,364.959 km
Semi-major axis
7,822.865 km
Eccentricity
0.0102
Inclination
82.4681°
RAAN
241.0157°
Arg. of periapsis
253.678°
True anomaly
106.43047°
Mean anomaly
105.3073°
Eccentric anomaly
105.86927°
Mean motion
3.13686 °/min
Orbital period
114.76 mins
BSTAR
0.014705
Loading maneuver chart data...
Computing Atmospheric mass density...
Loading historical data...
Loading historical data...
Loading historical data...
Loading historical data...
Loading historical data...
Loading historical data...
Loading historical data...

Documentation

Showing up to 5 results
|